Location: Jaite
(41.2884°N, 81.5737°W)
Time: 22:30:32
(UTC+00:00)

Cosmos 2228 - Pass Details

Date: 18 January 2020
Orbit: 588 x 619 km, 82.5° (Epoch: 17 February)

Event Time Altitude Azimuth Distance (km) Brightness Sun altitude
Rises 11:49:01 0° 199° (SSW) 2,877 6.5 -11.2°
Reaches altitude 10° 11:51:18 10° 205° (SSW) 1,978 5.6 -10.8°
Maximum altitude 11:55:33 49° 281° (W) 799 3.2 -10.0°
Drops below altitude 10° 11:59:51 10° 357° (N) 1,993 5.4 -9.2°
Sets 12:02:09 0° 3° (N) 2,901 6.3 -8.8°
